Location: West Sayville
(40.7279°N, 73.0976°W)
Time: 09:59:26
(UTC+00:00)

Cosmos 1076 Rocket - Pass Details

Date: 29 October 2020
Orbit: 589 x 613 km, 82.5° (Epoch: 23 November)

Event Time Altitude Azimuth Distance (km) Brightness Sun altitude
Rises 23:18:46 0° 356° (N) 2,831 7.0 -17.0°
Reaches altitude 10° 23:21:01 10° 0° (N) 1,926 6.0 -17.4°
Maximum altitude 23:25:12 59° 80° (E) 689 3.4 -18.2°
Drops below altitude 10° 23:29:23 10° 161° (SSE) 1,920 5.9 -19.0°
Sets 23:31:37 0° 165° (SSE) 2,821 6.8 -19.4°
